When you browse on this site, cookies collect data to enhance your experience and personalize the content and advertising you see.
Visit our Privacy Policy to learn more. By continuing to use the site, you agree to this use of cookies and data.
  • en Suisse
  • Liste des pays
  • À 7 jours
  • Température de l'eau
  • Carte satellitaire
  • Carte météo
  • Widgets météo
  • user-avatar
    Se connecter

    Météo par heure à Maceio

    Ce jour, 21 Novembre, Mercredi

    Heure Température Précipitation Vent Pression Humidité
    00:00 +26°C° 0.2 mm 4 m/s 760 mmHg 91%
    01:00 +26°C° 0.2 mm 4 m/s 760 mmHg 92%
    02:00 +25°C° 0.2 mm 4 m/s 760 mmHg 93%
    03:00 +25°C° 0.2 mm 4 m/s 760 mmHg 93%
    04:00 +25°C° 0.2 mm 4 m/s 759 mmHg 93%
    05:00 +26°C° 0.2 mm 4 m/s 760 mmHg 90%
    06:00 +26°C° 0.2 mm 5 m/s 760 mmHg 88%
    07:00 +27°C° 0.2 mm 5 m/s 760 mmHg 85%
    08:00 +28°C° 0.1 mm 5 m/s 760 mmHg 78%
    09:00 +30°C° 0.1 mm 5 m/s 760 mmHg 70%
    10:00 +32°C° 0.1 mm 6 m/s 760 mmHg 63%
    11:00 +33°C° 0.1 mm 6 m/s 760 mmHg 59%
    12:00 +34°C° 0.1 mm 6 m/s 760 mmHg 55%
    13:00 +35°C° 0.1 mm 6 m/s 760 mmHg 51%
    14:00 +34°C° 0 mm 6 m/s 759 mmHg 53%
    15:00 +34°C° 0 mm 6 m/s 759 mmHg 54%
    16:00 +34°C° 0 mm 6 m/s 758 mmHg 55%
    17:00 +32°C° 0 mm 5 m/s 759 mmHg 63%
    18:00 +29°C° 0 mm 5 m/s 759 mmHg 71%
    19:00 +27°C° 0 mm 5 m/s 759 mmHg 79%
    20:00 +27°C° 0.2 mm 5 m/s 760 mmHg 83%
    21:00 +26°C° 0.2 mm 5 m/s 760 mmHg 87%
    22:00 +26°C° 0.2 mm 5 m/s 761 mmHg 91%
    23:00 +26°C° 0.3 mm 5 m/s 760 mmHg 92%

    Demain, 22 Novembre, Jeudi

    Heure Température Précipitation Vent Pression Humidité
    00:00 +26°C° 0.3 mm 5 m/s 760 mmHg 92%
    01:00 +26°C° 0.3 mm 5 m/s 760 mmHg 93%
    02:00 +25°C° 0.2 mm 5 m/s 760 mmHg 94%
    03:00 +25°C° 0.2 mm 5 m/s 759 mmHg 94%
    04:00 +25°C° 0.2 mm 5 m/s 759 mmHg 94%
    05:00 +25°C° 0.1 mm 5 m/s 759 mmHg 92%
    06:00 +26°C° 0.1 mm 5 m/s 759 mmHg 90%
    07:00 +26°C° 0.1 mm 5 m/s 759 mmHg 89%
    08:00 +28°C° 0.1 mm 5 m/s 760 mmHg 82%
    09:00 +29°C° 0.1 mm 5 m/s 760 mmHg 75%
    10:00 +30°C° 0.1 mm 5 m/s 761 mmHg 68%
    11:00 +32°C° 0.1 mm 5 m/s 760 mmHg 62%
    12:00 +34°C° 0.1 mm 6 m/s 760 mmHg 56%
    13:00 +35°C° 0.1 mm 6 m/s 760 mmHg 51%
    14:00 +34°C° 0 mm 6 m/s 759 mmHg 52%
    15:00 +34°C° 0 mm 6 m/s 759 mmHg 54%
    16:00 +33°C° 0 mm 6 m/s 758 mmHg 55%
    17:00 +30°C° 0 mm 6 m/s 758 mmHg 62%
    18:00 +29°C° 0 mm 5 m/s 759 mmHg 70%
    19:00 +27°C° 0 mm 5 m/s 759 mmHg 77%
    20:00 +27°C° 0.1 mm 5 m/s 759 mmHg 80%
    21:00 +26°C° 0.1 mm 5 m/s 760 mmHg 83%
    22:00 +26°C° 0.1 mm 5 m/s 760 mmHg 85%
    23:00 +26°C° 0.1 mm 5 m/s 760 mmHg 87%

    Après-demain, 23 Novembre, Vendredi

    Heure Température Précipitation Vent Pression Humidité
    00:00 +26°C° 0.1 mm 5 m/s 760 mmHg 88%
    01:00 +25°C° 0.1 mm 5 m/s 759 mmHg 89%
    02:00 +25°C° 0.1 mm 5 m/s 759 mmHg 89%
    03:00 +25°C° 0.1 mm 5 m/s 758 mmHg 90%
    04:00 +25°C° 0.1 mm 4 m/s 758 mmHg 90%
    05:00 +25°C° 0.1 mm 5 m/s 758 mmHg 88%
    06:00 +26°C° 0.1 mm 5 m/s 758 mmHg 86%
    07:00 +26°C° 0.1 mm 5 m/s 759 mmHg 84%
    08:00 +28°C° 0.1 mm 5 m/s 759 mmHg 76%
    09:00 +30°C° 0.1 mm 5 m/s 759 mmHg 68%
    10:00 +33°C° 0.1 mm 5 m/s 760 mmHg 60%
    11:00 +33°C° 0.1 mm 5 m/s 759 mmHg 57%
    12:00 +34°C° 0.1 mm 5 m/s 759 mmHg 55%
    13:00 +34°C° 0.1 mm 5 m/s 758 mmHg 52%
    14:00 +34°C° 0 mm 5 m/s 758 mmHg 53%
    15:00 +34°C° 0 mm 5 m/s 757 mmHg 54%
    16:00 +33°C° 0 mm 5 m/s 757 mmHg 55%
    17:00 +32°C° 0 mm 5 m/s 757 mmHg 62%
    18:00 +29°C° 0 mm 5 m/s 758 mmHg 69%
    19:00 +27°C° 0 mm 4 m/s 758 mmHg 76%
    20:00 +27°C° 0.1 mm 4 m/s 759 mmHg 78%
    21:00 +27°C° 0.1 mm 4 m/s 759 mmHg 81%
    22:00 +27°C° 0.1 mm 4 m/s 760 mmHg 83%
    23:00 +26°C° 0.1 mm 4 m/s 759 mmHg 84%

    24 Novembre, Samedi

    Heure Température Précipitation Vent Pression Humidité
    00:00 +26°C° 0.1 mm 4 m/s 759 mmHg 85%
    01:00 +26°C° 0.1 mm 4 m/s 759 mmHg 87%
    02:00 +26°C° 0 mm 4 m/s 758 mmHg 87%
    03:00 +26°C° 0 mm 4 m/s 758 mmHg 88%
    04:00 +26°C° 0 mm 4 m/s 757 mmHg 88%
    05:00 +26°C° 0 mm 4 m/s 758 mmHg 87%
    06:00 +26°C° 0 mm 4 m/s 758 mmHg 86%
    07:00 +26°C° 0 mm 4 m/s 759 mmHg 84%
    08:00 +28°C° 0 mm 4 m/s 759 mmHg 77%
    09:00 +30°C° 0 mm 4 m/s 759 mmHg 69%
    10:00 +32°C° 0 mm 5 m/s 760 mmHg 61%
    11:00 +33°C° 0 mm 5 m/s 759 mmHg 58%
    12:00 +34°C° 0 mm 5 m/s 759 mmHg 56%
    13:00 +35°C° 0 mm 5 m/s 758 mmHg 53%
    14:00 +34°C° 0 mm 5 m/s 758 mmHg 55%
    15:00 +34°C° 0 mm 6 m/s 757 mmHg 57%
    16:00 +33°C° 0 mm 6 m/s 757 mmHg 59%
    17:00 +32°C° 0 mm 5 m/s 757 mmHg 65%
    18:00 +29°C° 0 mm 5 m/s 758 mmHg 72%
    19:00 +28°C° 0 mm 5 m/s 758 mmHg 79%
    20:00 +27°C° 0 mm 5 m/s 758 mmHg 82%
    21:00 +27°C° 0 mm 5 m/s 759 mmHg 86%
    22:00 +26°C° 0 mm 4 m/s 759 mmHg 89%
    23:00 +26°C° 0.1 mm 4 m/s 759 mmHg 91%

    25 Novembre, Dimanche

    Heure Température Précipitation Vent Pression Humidité
    00:00 +26°C° 0.1 mm 4 m/s 758 mmHg 92%
    01:00 +26°C° 0.1 mm 4 m/s 758 mmHg 93%
    02:00 +26°C° 0.1 mm 4 m/s 758 mmHg 93%
    03:00 +26°C° 0.1 mm 4 m/s 757 mmHg 94%
    04:00 +26°C° 0.1 mm 4 m/s 757 mmHg 94%
    05:00 +26°C° 0.1 mm 4 m/s 758 mmHg 93%
    06:00 +26°C° 0.1 mm 4 m/s 758 mmHg 91%
    07:00 +27°C° 0.1 mm 4 m/s 759 mmHg 89%
    08:00 +28°C° 0.1 mm 4 m/s 759 mmHg 82%
    09:00 +30°C° 0.1 mm 5 m/s 759 mmHg 74%
    10:00 +33°C° 0.1 mm 5 m/s 759 mmHg 66%
    11:00 +33°C° 0 mm 5 m/s 758 mmHg 62%
    12:00 +34°C° 0 mm 5 m/s 758 mmHg 59%
    13:00 +34°C° 0 mm 6 m/s 757 mmHg 55%
    14:00 +34°C° 0 mm 6 m/s 757 mmHg 57%
    15:00 +33°C° 0 mm 6 m/s 757 mmHg 60%
    16:00 +32°C° 0 mm 6 m/s 756 mmHg 62%
    17:00 +30°C° 0 mm 5 m/s 757 mmHg 69%
    18:00 +29°C° 0 mm 5 m/s 757 mmHg 75%
    19:00 +28°C° 0 mm 5 m/s 757 mmHg 82%
    20:00 +27°C° 0.1 mm 5 m/s 758 mmHg 85%
    21:00 +27°C° 0.1 mm 5 m/s 758 mmHg 88%
    22:00 +26°C° 0.1 mm 5 m/s 758 mmHg 92%
    23:00 +26°C° 0.1 mm 4 m/s 758 mmHg 92%

    26 Novembre, Lundi

    Heure Température Précipitation Vent Pression Humidité
    00:00 +26°C° 0.1 mm 4 m/s 757 mmHg 92%
    01:00 +26°C° 0.1 mm 4 m/s 757 mmHg 93%
    02:00 +26°C° 0.1 mm 4 m/s 757 mmHg 94%
    03:00 +26°C° 0.1 mm 4 m/s 756 mmHg 94%
    04:00 +25°C° 0.1 mm 4 m/s 756 mmHg 95%
    05:00 +26°C° 0.1 mm 4 m/s 756 mmHg 93%
    06:00 +26°C° 0.1 mm 5 m/s 757 mmHg 91%
    07:00 +27°C° 0.1 mm 5 m/s 757 mmHg 89%
    08:00 +28°C° 0.1 mm 5 m/s 757 mmHg 81%
    09:00 +30°C° 0.1 mm 5 m/s 757 mmHg 72%
    10:00 +33°C° 0.1 mm 5 m/s 758 mmHg 63%
    11:00 +33°C° 0.1 mm 5 m/s 757 mmHg 61%
    12:00 +33°C° 0.1 mm 5 m/s 757 mmHg 59%
    13:00 +33°C° 0.1 mm 6 m/s 756 mmHg 57%
    14:00 +34°C° 0 mm 6 m/s 756 mmHg 56%
    15:00 +34°C° 0 mm 6 m/s 756 mmHg 56%
    16:00 +34°C° 0 mm 6 m/s 755 mmHg 55%
    17:00 +32°C° 0 mm 6 m/s 756 mmHg 63%
    18:00 +30°C° 0 mm 5 m/s 756 mmHg 71%
    19:00 +28°C° 0 mm 5 m/s 756 mmHg 79%
    20:00 +27°C° 0.1 mm 5 m/s 757 mmHg 82%
    21:00 +27°C° 0.1 mm 4 m/s 757 mmHg 86%
    22:00 +26°C° 0.1 mm 4 m/s 758 mmHg 89%
    23:00 +26°C° 0.1 mm 4 m/s 757 mmHg 91%
    Voir plus